Weather reports worldwide

Advertisment
Faßberg, Germany (10246): temperature & dewpoint: 06.11.2019 17:00:00 - 12.11.2019 17:00:00 (CET)Faßberg, Germany (10246): wind speed: 06.11.2019 17:00:00 - 12.11.2019 17:00:00 (CET)Faßberg, Germany (10246): wind direction: 06.11.2019 17:00:00 - 12.11.2019 17:00:00 (CET)Faßberg, Germany (10246): reduced air pressure: 06.11.2019 17:00:00 - 12.11.2019 17:00:00 (CET)Faßberg, Germany (10246): visibility: 06.11.2019 17:00:00 - 12.11.2019 17:00:00 (CET)
Date & Time tt [°C] td [°C] ff [km/h] ff [kn] dd ppp [hPa] vv [km]
12.11.2019 17:00:00 6,2 1,0 11 6 S 1001,8 10
12.11.2019 16:00:00 6,7 1,4 18 10 S 1001,9 25
12.11.2019 15:00:00 7,1 1,3 18 10 SSW 1002,0 25
12.11.2019 14:00:00 7,1 1,0 22 12 SSW 1002,0 25
12.11.2019 13:00:00 7,3 0,8 22 12 SSW 1002,4 30
12.11.2019 12:00:00 7,6 0,7 22 12 SW 1002,6 30
12.11.2019 11:00:00 6,3 0,9 22 12 SW 1003,0 30
12.11.2019 10:00:00 4,9 0,9 22 12 SSW 1003,4 20
12.11.2019 09:00:00 4,0 0,9 22 12 SSW 1003,3 20
12.11.2019 08:00:00 3,8 0,9 21 11 SSW 1003,2 10
12.11.2019 07:00:00 3,8 0,9 18 10 SSW 1002,8 15
12.11.2019 06:00:00 4,0 1,1 18 10 SSW 1002,5 15
12.11.2019 05:00:00 4,0 0,9 22 12 SSW 1002,4 15
12.11.2019 04:00:00 3,8 0,7 14 8 SW 1002,5 15
12.11.2019 03:00:00 3,3 0,5 14 8 SSW 1002,6 15
12.11.2019 02:00:00 2,8 0,1 14 8 SW 1002,4 15
12.11.2019 01:00:00 3,2 -0,1 18 10 SSW 1002,6 10
12.11.2019 00:00:00 2,8 -0,2 18 10 SW 1003,0 15
11.11.2019 23:00:00 3,2 0,0 18 10 SSW 1003,4 10
11.11.2019 22:00:00 3,1 0,5 14 8 S 1003,5 10
11.11.2019 21:00:00 3,0 0,9 11 6 S 1003,7 12
11.11.2019 20:00:00 2,9 1,1 14 8 SSE 1003,8 12
11.11.2019 19:00:00 2,7 1,1 11 6 SSE 1004,2 12
11.11.2019 18:00:00 2,6 0,9 11 6 SE 1004,8 20
11.11.2019 17:00:00 2,2 0,5 11 6 SSE 1005,4 10
11.11.2019 16:00:00 3,6 0,8 11 6 SSW 1006,2 20
11.11.2019 15:00:00 4,1 1,0 14 8 S 1006,8 20
11.11.2019 14:00:00 4,4 1,4 18 10 S 1007,6 15
11.11.2019 13:00:00 4,0 1,6 14 8 S 1008,4 12
11.11.2019 12:00:00 3,5 1,2 18 10 SSW 1009,4 10
11.11.2019 11:00:00 2,9 1,0 14 8 S 1009,9 10
11.11.2019 10:00:00 1,5 0,6 11 6 S 1010,4 6
11.11.2019 09:00:00 0,5 0,1 14 8 S 1011,0 4,0
11.11.2019 08:00:00 0,1 -0,2 14 8 S 1011,3 2,0
11.11.2019 07:00:00 -0,5 -0,8 11 6 SSW 1012,3 1,5
11.11.2019 06:00:00 -0,2 -0,6 4 2 SSW 1013,1 0,5
11.11.2019 05:00:00 -0,7 -1,1 4 2 SSW 1013,5 0,5
11.11.2019 04:00:00 -1,0 -1,4 7 4 SSW 1014,1 2,2
11.11.2019 03:00:00 -2,6 -3,2 4 2 W 1014,3 2,0
11.11.2019 02:00:00 -2,5 -3,0 4 2 SW 1014,6 2,0
11.11.2019 01:00:00 -2,7 -3,2 4 2 N 1014,7 2,0
11.11.2019 00:00:00 -1,8 -2,2 4 2 N 1014,9 2,0
10.11.2019 23:00:00 -1,4 -1,8 4 2 SW 1015,2 3,0
10.11.2019 22:00:00 -3,2 -3,6 4 2 S 1015,4 4,0
10.11.2019 21:00:00 -0,4 -0,9 7 4 NW 1015,6 7
10.11.2019 20:00:00 -1,8 -2,2 11 6 S 1015,5 7
10.11.2019 19:00:00 -0,4 -0,9 4 2 S 1015,5 6
10.11.2019 18:00:00 -0,1 -0,8 4 2 S 1015,5 5
10.11.2019 17:00:00 3,7 1,7 7 4 SSW 1014,9 10
10.11.2019 16:00:00 6,1 2,6 11 6 SSW 1014,3 12
10.11.2019 15:00:00 7,3 1,7 7 4 SSW 1013,8 12
10.11.2019 14:00:00 7,0 2,4 7 4 SSW 1013,5 10
10.11.2019 13:00:00 6,3 2,4 7 4 W 1013,6 10
10.11.2019 12:00:00 5,7 2,3 7 4 W 1013,7 7
10.11.2019 11:00:00 4,2 1,6 7 4 WSW 1013,7 3,5
10.11.2019 10:00:00 2,0 1,4 4 2 WSW 1013,5 1,4
10.11.2019 09:00:00 -0,9 -1,3 0 0 N 1013,3 1,3
10.11.2019 08:00:00 -1,2 -1,6 4 2 SSW 1012,7 1,3
10.11.2019 07:00:00 -2,1 -2,5 0 0 N 1011,8 1,1
10.11.2019 06:00:00 -2,8 -3,2 4 2 ESE 1011,3 0,7
10.11.2019 05:00:00 -1,9 -2,2 0 0 N 1010,8 0,5
10.11.2019 04:00:00 -1,8 -2,1 4 2 N 1010,3 0,5
10.11.2019 03:00:00 -1,4 -1,7 4 2 SSW 1010,1 0,5
10.11.2019 02:00:00 -1,3 -1,7 0 0 N 1009,8 0,5
10.11.2019 01:00:00 -1,4 -1,8 4 2 S 1009,6 0,3
10.11.2019 00:00:00 -1,2 -1,6 4 2 ESE 1009,5 0,8
09.11.2019 23:00:00 0,3 -0,1 4 2 SW 1009,0 0,3
09.11.2019 22:00:00 1,8 1,4 4 2 S 1008,7 0,8
09.11.2019 21:00:00 3,1 2,5 4 2 S 1008,5 2,0
09.11.2019 20:00:00 2,9 2,1 4 2 SSW 1008,4 10
09.11.2019 19:00:00 4,8 3,7 7 4 SW 1008,3 10
09.11.2019 18:00:00 4,3 3,7 4 2 SSW 1008,1 10
09.11.2019 17:00:00 5,8 4,7 4 2 N 1008,0 10
09.11.2019 16:00:00 6,1 3,3 7 4 W 1007,7 10
09.11.2019 15:00:00 7,2 4,8 11 6 WNW 1007,5 10
09.11.2019 14:00:00 7,2 4,6 7 4 W 1007,2 10
09.11.2019 13:00:00 7,2 5,0 11 6 W 1007,1 10
09.11.2019 12:00:00 6,8 5,3 7 4 WSW 1007,4 10
09.11.2019 11:00:00 6,1 5,0 7 4 W 1008,1 8
09.11.2019 10:00:00 5,6 5,0 4 2 W 1008,1 3,5
09.11.2019 09:00:00 5,0 4,5 4 2 N 1007,9 2,5
09.11.2019 08:00:00 4,8 4,3 0 0 N 1007,8 3,0
09.11.2019 07:00:00 4,8 4,2 4 2 SSW 1008,0 4,0
09.11.2019 06:00:00 4,6 4,1 4 2 NW 1007,7 8
09.11.2019 05:00:00 4,4 4,0 4 2 NW 1007,7 8
09.11.2019 04:00:00 4,4 4,0 4 2 N 1007,8 8
09.11.2019 03:00:00 4,4 4,0 4 2 SW 1007,9 8
09.11.2019 02:00:00 4,4 4,0 4 2 W 1007,8 10
09.11.2019 01:00:00 4,4 4,0 4 2 WSW 1008,1 15
09.11.2019 00:00:00 4,7 4,3 4 2 WNW 1007,9 15
08.11.2019 23:00:00 4,6 4,1 4 2 N 1008,3 15
08.11.2019 22:00:00 4,8 4,2 4 2 NNE 1008,5 20
08.11.2019 21:00:00 5,0 4,4 4 2 E 1008,1 20
08.11.2019 20:00:00 5,2 4,7 4 2 ENE 1008,0 30
08.11.2019 19:00:00 5,4 4,8 0 0 N 1007,9 30
08.11.2019 18:00:00 5,7 4,9 4 2 ENE 1007,9 20
08.11.2019 17:00:00 5,9 4,8 7 4 E 1008,0 20
08.11.2019 16:00:00 6,5 5,1 4 2 ENE 1008,0 20
08.11.2019 15:00:00 7,6 5,0 7 4 E 1007,6 20
08.11.2019 14:00:00 7,9 4,1 7 4 ENE 1007,6 20
08.11.2019 13:00:00 7,5 4,3 4 2 N 1007,7 20
08.11.2019 12:00:00 6,6 4,3 4 2 N 1008,0 20
08.11.2019 11:00:00 5,5 5,0 4 2 N 1008,3 20
08.11.2019 10:00:00 2,4 2,0 4 2 ESE 1008,2 15
08.11.2019 09:00:00 1,7 1,2 0 0 N 1007,7 15
08.11.2019 08:00:00 0,3 -0,2 7 4 S 1007,3 15
08.11.2019 07:00:00 0,3 -0,1 0 0 N 1006,6 15
08.11.2019 06:00:00 1,0 0,6 4 2 N 1006,2 20
08.11.2019 05:00:00 2,5 1,9 4 2 SSW 1006,1 30
08.11.2019 04:00:00 3,0 2,1 7 4 SSW 1005,9 30
08.11.2019 03:00:00 4,4 3,2 11 6 SSW 1005,5 30
08.11.2019 02:00:00 4,7 3,8 11 6 SSW 1004,8 30
08.11.2019 01:00:00 5,9 4,9 11 6 WSW 1004,0 30
08.11.2019 00:00:00 6,9 5,7 14 8 WSW 1003,4 30
07.11.2019 23:00:00 7,3 6,2 11 6 SW 1002,8 30
07.11.2019 22:00:00 8,1 6,7 14 8 SW 1002,0 30
07.11.2019 21:00:00 8,1 6,9 14 8 S 1001,4 30
07.11.2019 20:00:00 7,9 6,9 11 6 SSE 1000,6 7
07.11.2019 19:00:00 7,5 6,8 11 6 ESE 1000,5 4,5
07.11.2019 18:00:00 7,2 6,6 14 8 ESE 1000,7 3,5
07.11.2019 17:00:00 6,7 6,1 11 6 E 1000,7 2,0
07.11.2019 16:00:00 6,6 5,9 14 8 ESE 1000,8 2,0
07.11.2019 15:00:00 6,5 5,8 14 8 ESE 1001,1 2,5
07.11.2019 14:00:00 6,3 5,4 11 6 ESE 1001,1 3,5
07.11.2019 13:00:00 6,1 5,2 11 6 E 1001,4 3,7
07.11.2019 12:00:00 5,6 5,1 11 6 ESE 1001,6 3,7
07.11.2019 11:00:00 4,6 4,2 14 8 SE 1002,0 3,0
07.11.2019 10:00:00 4,1 3,6 7 4 ESE 1002,3 0,6
07.11.2019 09:00:00 3,2 2,8 7 4 ESE 1002,5 0,2
07.11.2019 08:00:00 2,7 2,3 7 4 ESE 1002,4 0,2
07.11.2019 07:00:00 2,4 2,0 7 4 E 1002,1 0,2
07.11.2019 06:00:00 2,7 2,3 4 2 ESE 1002,1 0,2
07.11.2019 05:00:00 3,2 2,8 4 2 N 1002,6 0,2
07.11.2019 04:00:00 3,5 3,1 4 2 N 1002,7 0,4
07.11.2019 03:00:00 4,2 3,6 4 2 S 1002,6 0,6
07.11.2019 02:00:00 4,7 4,1 4 2 SW 1002,7 0,6
07.11.2019 01:00:00 5,1 4,5 7 4 W 1002,9 0,6
07.11.2019 00:00:00 5,2 4,6 9 5 WSW 1002,9 0,5
06.11.2019 23:00:00 5,4 4,8 7 4 SW 1002,9 3,0
06.11.2019 22:00:00 5,6 5,0 7 4 SW 1002,9 5
06.11.2019 21:00:00 5,7 5,1 7 4 WSW 1002,8 5
06.11.2019 20:00:00 6,2 5,5 7 4 W 1002,5 5
06.11.2019 19:00:00 6,5 5,6 7 4 WSW 1002,4 8
06.11.2019 18:00:00 6,7 5,8 7 4 N 1002,0 8
06.11.2019 17:00:00 7,0 5,6 7 4 W 1001,8 9

tt = temperature
td = dewpoint
ff = wind speed
dd = wind direction
ppp = reduced air pressure
vv = visibility

Next stations